ARCSTONE

operational
NORAD ID: 64540 Int'l Des: 2025-135 Owner: LARCN Country: US
LEOCIRCULARRETROGRADESSO

关于 ARCSTONE

正在加载描述...

实时位置

正在加载3D地球...

即将过境

高度历史

Altitude vs Time

uPlot chart will show altitude changes over time

两行轨道根数

1 64540U 25135N 25340.85070069 .00029779 00000-0 12365-2 0 9997
2 64540 97.4514 93.1711 0004232 137.2668 222.8899 15.23776760 25659
Epoch: Dec 6, 2025 • Age: 11 hours

当前状态

高度 505.7 km
速度 7.62 km/s
星下点 81.92°N, 145.91°E
发射日期 Jun 23, 2025
运行时间 0.4 years
类型 other

技术详情

分类 Payload
质量 5.00 kg
干质量 5.00 kg
总质量 5.00 kg
长度 0.30 m
直径 0.10 m
跨度 1.30 m
形状 Box + 2 pan
制造商 BLCAN
平台类型 Cubesat 6U
阶段状态 In Orbit
所有者/国家 LARCN/US

大型星座

Loading constellations...